This demonstration page uses our WeatherBlox Daily Observations layout. Learn more.

38.88101, -77.10428

Hourly Observations for March 19, 2020

Temp ( °F °C ) Dew Point ( °F °C ) Humidity (%) Winds ( mph kmh ) Pressure ( in mb ) Visibility ( mi km ) Precip ( " mm )
12:33 am 00:33 Cloudy with Light Rain 50 10 47 8.3 89 89 S 9 15 30.29 1026 9 14.48406 0.04 1.016
12:52 am 00:52 Cloudy with Light Rain 50 10 47 8.3 89 89 S 10 17 30.28 1025 8 12.87472 0.06 1.524
1:52 am 01:52 Cloudy with Light Rain 50 10 47 8.3 89 89 S 10 17 30.25 1024 10 16.0934 0.01 0.254
2:35 am 02:35 Cloudy with Rain 50 10 47 8.3 89 89 SSW 8 13 30.24 1024 5 8.0467 0.05 1.27
2:44 am 02:44 Cloudy with Light Rain 50 10 48 8.9 93 93 SSW 9 15 30.23 1024 5 8.0467 0.07 1.778
2:52 am 02:52 Cloudy with Light Rain 49 9.4 48 8.9 97 97 SSW 8 13 30.23 1024 5 8.0467 0.09 2.286
3:14 am 03:14 Cloudy with Light Rain 49 9.4 48 8.9 97 97 SW 8 13 30.23 1024 6 9.65604 0.04 1.016
3:52 am 03:52 Cloudy with Light Rain 50 10 48 8.9 93 93 W 7 11 30.24 1024 6 9.65604 0.13 3.302
4:29 am 04:29 Cloudy with Light Rain 50 10 48 8.9 93 93 SSE 5 7 30.22 1023 8 12.87472 0.07 1.778
4:52 am 04:52 Cloudy with Light Rain 50 10 48 8.9 93 93 S 8 13 30.2 1023 8 12.87472 0.08 2.032
5:15 am 05:15 Cloudy 50 10 48 8.9 93 93 SSW 10 17 30.19 1022 10 16.0934 0.001 0.001
5:52 am 05:52 Cloudy with Light Rain 50 10 49 9.4 96 96 SSW 6 9 30.19 1022 7 11.26538 0.02 0.508
6:24 am 06:24 Cloudy 50 10 49 9.4 96 96 S 8 13 30.19 1022 10 16.0934 0.001 0.001
6:52 am 06:52 Cloudy 50 10 49 9.4 96 96 S 9 15 30.18 1022 10 16.0934 0.001 0.001
7:05 am 07:05 Cloudy 50 10 49 9.4 96 96 SSW 8 13 30.19 1022 9 14.48406 0 0
7:52 am 07:52 Cloudy with Mist and Fog 51 10.6 50 10 96 96 SSW 9 15 30.19 1022 4 6.43736 0 0
8:52 am 08:52 Cloudy with Mist and Fog 53 11.7 51 10.6 93 93 SSW 7 11 30.2 1023 5 8.0467 0 0
9:52 am 09:52 Cloudy with Mist and Fog 54 12.2 52 11.1 93 93 SSW 6 9 30.21 1023 6 9.65604 0 0
10:24 am 10:24 Cloudy with Mist and Fog 55 12.8 52 11.1 90 90 Calm 30.22 1023 6 9.65604 0 0
10:52 am 10:52 Cloudy with Mist and Fog 56 13.3 53 11.7 90 90 SE 3 6 30.22 1023 6 9.65604 0 0
11:27 am 11:27 Cloudy 57 13.9 53 11.7 87 87 SE 5 7 30.22 1023 7 11.26538 0 0
11:52 am 11:52 Cloudy 59 15 54 12.2 83 83 E 3 6 30.21 1023 7 11.26538 0 0
12:04 pm 12:04 Mostly Cloudy 59 15 54 12.2 83 83 E 3 6 30.2 1023 8 12.87472 0 0
12:52 pm 12:52 Cloudy 62 16.7 55 12.8 78 78 ENE 3 6 30.19 1023 9 14.48406 0 0
1:52 pm 13:52 Cloudy 66 18.9 57 13.9 73 73 Calm 30.18 1022 10 16.0934 0 0
2:52 pm 14:52 Mostly Cloudy 69 20.6 57 13.9 66 66 NNE 5 7 30.14 1021 10 16.0934 0 0
3:52 pm 15:52 Mostly Cloudy 71 21.7 58 14.4 63 63 ESE 3 6 30.14 1021 10 16.0934 0 0
4:52 pm 16:52 Mostly Cloudy 74 23.3 58 14.4 57 57 NNE 5 7 30.14 1021 10 16.0934 0 0
5:52 pm 17:52 Mostly Cloudy 69 20.6 58 14.4 68 68 E 12 19 30.13 1020 10 16.0934 0 0
6:52 pm 18:52 Cloudy 66 18.9 57 13.9 73 73 E 10 17 30.15 1021 10 16.0934 0 0
7:52 pm 19:52 Cloudy 64 17.8 56 13.3 75 75 E 5 7 30.16 1021 10 16.0934 0 0
8:52 pm 20:52 Cloudy 62 16.7 57 13.9 84 84 NE 9 15 30.18 1022 10 16.0934 0.001 0.001
9:52 pm 21:52 Mostly Cloudy 60 15.6 55 12.8 84 84 NE 7 11 30.16 1021 10 16.0934 0 0
10:52 pm 22:52 Cloudy 59 15 55 12.8 87 87 NE 6 9 30.16 1021 9 14.48406 0 0
11:52 pm 23:52 Cloudy 58 14.4 55 12.8 90 90 NE 5 7 30.14 1021 8 12.87472 0 0

Powered by AerisWeather